Regional Weather Roundup
Issued by NWS

Home | Current Version | Previous Version | Text Only | Print | Product List | Glossary On
Versions: 1 2 3 4 5 6 7 8 9 10 11 12 13 14 15 16 17 18 19 20 21 22 23 24 25 26 27 28 29 30 31 32 33 34 35 36 37 38 39 40 41 42 43 44 45 46 47 48 49 50
000
ASUS43 KDTX 290310
RWRMI
MICHIGAN HOURLY REGIONAL WEATHER ROUNDUP
NATIONAL WEATHER SERVICE DETROIT/PONTIAC MI
1100 PM EDT WED JUN 28 2017

NOTE: "FAIR" INDICATES FEW OR NO CLOUDS BELOW 12,000 FEET WITH NO
SIGNIFICANT WEATHER AND/OR OBSTRUCTION TO VISIBILITY.

MIZ047>049-052>055-059>063-066>070-074>076-081>083-290400-
SOUTHEAST LOWER MICHIGAN

CITY           SKY/WX    TMP DP  RH WIND       PRES   REMARKS
ADRIAN         CLOUDY    72  54  53 S14       29.92F
ALMA           LGT RAIN  63  59  87 E10G17    29.86F
ANN ARBOR      MOCLDY    70  53  54 S9G18     29.90F
BAD AXE        LGT RAIN  62  58  87 S12       29.94S
CARO           LGT RAIN  61  59  93 SE9       29.91F
DETROIT CITY   LGT RAIN  72  55  55 S10       29.93F
DETROIT        MOCLDY    72  54  53 S12       29.92F
FLINT          CLOUDY    66  55  67 E9        29.92R
GROSSE ILE     MOCLDY    72  58  63 S14       29.93S
HILLSDALE      CLOUDY    70  52  52 S8        29.93R
HOWELL         MOCLDY    68  51  54 SE5       29.92R

CITY           SKY/WX    TMP DP  RH WIND       PRES   REMARKS
JACKSON        CLOUDY    72  52  49 S10       29.91S
LAMBERTVILLE   CLOUDY    73  53  49 S12G18    29.93F
LANSING        CLOUDY    70  52  52 SE8       29.88R
LAPEER         LGT RAIN  63  57  81 NE5       29.95S
MASON          PTCLDY    68  55  62 SE7       29.91R
MONROE         CLOUDY    73  54  51 S14       29.92F
MT. CLEMENS    MOCLDY    69  60  73 SE8       29.92F
PONTIAC        CLOUDY    70  53  54 S8        29.91F
PORT HOPE        N/A     63  58  83 S6        29.92R
PORT HURON     CLOUDY    63  57  82 E6        29.95F
TRI CITIES     LGT RAIN  64  60  87 SE16      29.87F
MIDLAND        LGT RAIN  63  58  83 SE5       29.85F
TROY           CLOUDY    73  49  43 S5        29.94F
SAGINAW HB     LGT RAIN  63  55  77 SE9       29.89F
$$
MIZ043>046-050>051-056>058-064>065-071>073-077>080-290400-
SOUTHWEST LOWER MICHIGAN

CITY           SKY/WX    TMP DP  RH WIND       PRES   REMARKS
BATTLE CREEK   CLOUDY    73  54  51 S15       29.88R
BENTON HARBOR  CLOUDY    76  55  48 S14G23    29.82R
BIG RAPIDS     RAIN      61  57  86 S6G18     29.82F
COLDWATER      CLOUDY    74  48  39 S9        29.91R
FREMONT        LGT RAIN  62  61  94 S10       29.85R
HOLLAND        TSTM      70  59  68 N8        29.85R
GRAND RAPIDS   CLOUDY    66  60  81 N7        29.86R THUNDER
IONIA          CLOUDY    66  55  67 E8        29.84F
KALAMAZOO      CLOUDY    74  52  46 S15G22    29.86R
LUDINGTON      HVY RAIN  64  62  94 S13G22    29.77R
MARSHALL       CLOUDY    73  52  48 S13       29.89R
MOUNT PLEASANT LGT RAIN  63  56  80 S8        29.85R
MUSKEGON       LGT RAIN  65  63  93 NW6       29.86S FOG
SOUTH HAVEN    CLOUDY    76  57  51 S13G22    29.81S
$$
MIZ016>042-290400-
NORTHERN LOWER MICHIGAN

CITY           SKY/WX    TMP DP  RH WIND       PRES   REMARKS
ALPENA         CLOUDY    62  60  93 SE8       29.84F
BEAVER ISLAND  CLOUDY    61  61 100 SE7       29.72F
BELLAIRE       CLOUDY    64  59  83 S7        29.76R
CADILLAC       CLOUDY    62  58  84 S13G20    29.79R
CHARLEVOIX     RAIN      63  63  98 SE8       29.76S
FRANKFORT      CLOUDY    66  59  77 S15G25    29.72R
GAYLORD        CLOUDY    62  56  80 S16G23    29.80F
GRAYLING       CLOUDY    61  58  90 S10       29.81S
HARBOR SPRINGS CLOUDY    62  62  99 E5        29.76F
HOUGHTON LAKE  CLOUDY    61  57  87 S10       29.83F
MANISTEE       LGT RAIN  64  61  90 S10G17    29.75R
OSCODA         CLOUDY    65  55  70 S17G23    29.86F
PELLSTON       LGT RAIN  62  59  90 SE8       29.77F
ROGERS CITY    LGT RAIN  62  59  91 SE13      29.82F
TRAVERSE CITY  CLOUDY    67  59  75 S9G20     29.73R
$$
MIZ007>008-015-290400-
EASTERN UPPER MICHIGAN

CITY           SKY/WX    TMP DP  RH WIND       PRES   REMARKS
KINROSS        LGT RAIN  60  59  96 SE12      29.79F
MACKINAC ISLAN LGT RAIN  61  61 100 SE7       29.77F
NEWBERRY       CLOUDY    60  59  97 SE10      29.74S FOG
S. S. MARIE    LGT RAIN  61  59  93 SE10      29.79F FOG
MUNISING         N/A     61  60  97 S7        29.68R
$$
MIZ004>006-011>014-085-290400-
CENTRAL UPPER MICHIGAN

CITY           SKY/WX    TMP DP  RH WIND       PRES   REMARKS
MANISTIQUE     DRIZZLE   58  55  89 E6        29.71S
ESCANABA       CLOUDY    61  60  97 SE6       29.67S
MENOMINEE      CLOUDY    63  61  93 S6        29.63F FOG
SAWYER-GWINN   CLOUDY    59  58  97 SE7       29.67S
$$
MIZ001>003-009>011-084-290400-
WESTERN UPPER MICHIGAN

CITY           SKY/WX    TMP DP  RH WIND       PRES   REMARKS
IRON MOUNTAIN  CLOUDY    61  59  93 SE8       29.62F FOG
HOUGHTON       LGT RAIN  60  58  92 E10       29.62S FOG
COPPER HARBOR    N/A     60  59  96 S9        29.64S
IRONWOOD       CLOUDY    65  63  93 VRB6      29.55R
$$

ABBREVIATIONS USED IN REMARKS
   TC - TEMPERATURE IN CELSIUS
  WCI - WIND CHILL INDEX
   HX - HEAT INDEX
  VSB - VISIBILITY




USA.gov is the U.S. government's official web portal to all federal, state and local government web resources and services.